Worthington, MN

12:05 AM CST on December 13, 2019 (GMT -0600)
Worthington Municipal

Weather History for KOTG - October, 2019

Change the Weather History Date:

Monday, October 14, 2019

  Actual Average Record
Temperature  
Mean Temperature 42 °F -  
Max Temperature 57 °F 57 °F 87 °F (1975)
Min Temperature 26 °F 37 °F 21 °F (2006)
Degree Days  
Heating Degree Days 24    
Moisture  
Dew Point 32 °F    
Average Humidity 75    
Maximum Humidity 96    
Minimum Humidity 42    
Precipitation  
Precipitation 0.00 in - - ()
Sea Level Pressure  
Sea Level Pressure 29.97 in    
Wind  
Wind Speed 6 mph (South)    
Max Wind Speed 15 mph    
Max Gust Speed 20 mph    
Visibility 10 miles    
Events      
Averages and records for this station are not official NWS values.
T = Trace of Precipitation, MM = Missing Value Source: NWS Daily Summary

Daily Weather History Graph

Daily Weather History Graph

Search for Another Location

Airport or City:

Astronomy

Oct. 14, 2019 Rise Set
Actual Time 7:35 AM CDT 6:40 PM CDT
Civil Twilight 7:06 AM CDT 7:09 PM CDT
Nautical Twilight 6:32 AM CDT 7:42 PM CDT
Astronomical Twilight 5:59 AM CDT 8:16 PM CDT
Moon 7:31 PM CDT (10/14) 8:07 AM CDT (10/14)
Length of Visible Light 12h 03m
Length of Day
11h 05m
Full, 99% of the Moon is Illuminated
Oct 14
Full
Oct 21
Last Quarter
Oct 27
New
Nov 4
First Quarter
Nov 12
Full

Hourly Weather History & Observations

Time (CDT) Temp. Windchill Dew Point Humidity Pressure Visibility Wind Dir Wind Speed Gust Speed Precip Events Conditions
12:11 AM 33.8 °F 29.6 °F 28.4 °F 81% 29.98 in 10.0 mi NW 4.6 mph - N/A   Scattered Clouds
12:56 AM 30.9 °F 25.2 °F 28.0 °F 89% 30.04 in 10.0 mi West 5.8 mph - N/A   Clear
1:56 AM 28.9 °F 22.8 °F 27.0 °F 92% 30.05 in 10.0 mi WSW 5.8 mph - N/A   Clear
2:56 AM 27.0 °F 20.5 °F 26.1 °F 96% 30.06 in 10.0 mi WSW 5.8 mph - N/A   Clear
3:56 AM 27.0 °F 18.7 °F 26.1 °F 96% 30.06 in 10.0 mi WSW 8.1 mph - N/A   Clear
4:56 AM 27.0 °F 20.5 °F 26.1 °F 96% 30.07 in 10.0 mi SW 5.8 mph - N/A   Clear
5:56 AM 26.1 °F - 24.1 °F 92% 30.08 in 10.0 mi Calm Calm - N/A   Clear
6:56 AM 26.1 °F - 24.1 °F 92% 30.06 in 10.0 mi Calm Calm - N/A   Clear
7:56 AM 26.1 °F 20.5 °F 24.1 °F 92% 30.06 in 10.0 mi South 4.6 mph - N/A   Clear
8:56 AM 33.1 °F - 32.0 °F 96% 30.07 in 10.0 mi Calm Calm - N/A   Clear
9:56 AM 37.9 °F 32.1 °F 30.9 °F 76% 30.06 in 10.0 mi SSW 8.1 mph - N/A   Clear
10:56 AM 43.0 °F 38.8 °F 33.1 °F 68% 30.04 in 10.0 mi South 6.9 mph - N/A   Clear
11:56 AM 46.0 °F 42.5 °F 34.0 °F 63% 30.03 in 10.0 mi South 6.9 mph - N/A   Clear
12:56 PM 48.9 °F - 34.0 °F 56% 30.01 in 10.0 mi South 9.2 mph - N/A   Clear
1:56 PM 52.0 °F - 34.0 °F 50% 29.97 in 10.0 mi South 10.4 mph - N/A   Clear
2:56 PM 55.0 °F - 33.1 °F 43% 29.92 in 10.0 mi SSE 12.7 mph 17.3 mph N/A   Clear
3:56 PM 57.0 °F - 34.0 °F 42% 29.89 in 10.0 mi SSE 12.7 mph - N/A   Clear
4:56 PM 57.0 °F - 35.1 °F 44% 29.85 in 10.0 mi SE 15.0 mph 19.6 mph N/A   Clear
5:56 PM 55.9 °F - 36.0 °F 47% 29.84 in 10.0 mi SE 11.5 mph - N/A   Clear
6:56 PM 50.0 °F - 37.0 °F 61% 29.87 in 9.0 mi ESE 3.5 mph - N/A   Clear
7:56 PM 44.1 °F 40.8 °F 36.0 °F 73% 29.88 in 10.0 mi East 5.8 mph - N/A   Clear
8:56 PM 42.1 °F 37.7 °F 36.0 °F 79% 29.87 in 10.0 mi East 6.9 mph - N/A   Clear
9:56 PM 42.1 °F 37.1 °F 36.0 °F 79% 29.84 in 10.0 mi East 8.1 mph - N/A   Clear
10:56 PM 42.1 °F 37.7 °F 37.0 °F 82% 29.82 in 10.0 mi ESE 6.9 mph - N/A   Clear
11:56 PM 41.0 °F 37.1 °F 37.0 °F 86% 29.80 in 10.0 mi SE 5.8 mph - N/A   Clear